timestamp,wind_dir_avg,wind_spd_avg,wind_spd_max_dir,wind_spd_gust,battery_voltage,lat,long
2023-02-09 00:04:00+00:00,302.0,6.67,303.0,7.82,12.41,47.59359,-54.27349
2023-02-09 00:14:00+00:00,307.0,6.56,303.0,7.88,12.41,47.59359,-54.27349
2023-02-09 00:24:00+00:00,308.0,6.89,305.0,7.8,12.41,47.59359,-54.27349
2023-02-09 00:34:00+00:00,308.0,7.25,307.0,8.5,12.41,47.59359,-54.27349
2023-02-09 00:44:00+00:00,310.0,5.99,310.0,6.6,12.41,47.59359,-54.27349
2023-02-09 00:54:00+00:00,307.0,6.11,297.0,7.18,12.41,47.59359,-54.27349
2023-02-09 01:04:00+00:00,308.0,6.21,305.0,7.08,12.41,47.59359,-54.27349
2023-02-09 01:14:00+00:00,316.0,5.31,322.0,6.56,12.33,47.59359,-54.27349
2023-02-09 01:24:00+00:00,309.0,6.16,308.0,7.28,12.33,47.59359,-54.27349
2023-02-09 01:34:00+00:00,313.0,5.64,310.0,6.34,12.33,47.59359,-54.27349
2023-02-09 01:44:00+00:00,296.0,5.36,300.0,6.64,12.33,47.59359,-54.27349
2023-02-09 01:54:00+00:00,322.0,4.35,316.0,5.62,12.33,47.59359,-54.27349
2023-02-09 02:04:00+00:00,303.0,5.31,297.0,6.29,12.33,47.59359,-54.27349
2023-02-09 02:14:00+00:00,300.0,5.24,301.0,6.43,12.33,47.59359,-54.27349
2023-02-09 02:24:00+00:00,307.0,5.14,308.0,6.35,12.33,47.59359,-54.27349
2023-02-09 02:34:00+00:00,311.0,5.49,309.0,6.39,12.33,47.59359,-54.27349
2023-02-09 02:44:00+00:00,316.0,3.93,311.0,5.14,12.33,47.59359,-54.27349
2023-02-09 02:54:00+00:00,307.0,7.75,308.0,9.43,12.33,47.59359,-54.27349
2023-02-09 03:04:00+00:00,311.0,6.78,314.0,7.29,12.33,47.59359,-54.27349
2023-02-09 03:14:00+00:00,311.0,5.83,312.0,6.56,12.33,47.59359,-54.27349
2023-02-09 03:24:00+00:00,308.0,5.02,304.0,6.4,12.33,47.59359,-54.27349
2023-02-09 03:34:00+00:00,315.0,5.4,315.0,6.21,12.33,47.59359,-54.27349
2023-02-09 03:44:00+00:00,302.0,4.27,299.0,5.04,12.33,47.59359,-54.27349
2023-02-09 03:54:00+00:00,301.0,3.82,307.0,4.39,12.33,47.59359,-54.27349
2023-02-09 04:04:00+00:00,292.0,4.04,283.0,5.19,12.33,47.59359,-54.27349
2023-02-09 04:14:00+00:00,289.0,4.15,285.0,4.79,12.33,47.59359,-54.27349
2023-02-09 04:24:00+00:00,299.0,3.72,294.0,4.45,12.33,47.59359,-54.27349
2023-02-09 04:34:00+00:00,279.0,3.28,278.0,3.51,12.33,47.59359,-54.27349
2023-02-09 04:44:00+00:00,280.0,4.88,285.0,5.91,12.33,47.59359,-54.27349
2023-02-09 04:54:00+00:00,273.0,5.23,269.0,6.72,12.33,47.59359,-54.27349
2023-02-09 05:04:00+00:00,280.0,5.46,287.0,6.61,12.33,47.59359,-54.27349
2023-02-09 05:14:00+00:00,278.0,6.24,278.0,7.35,12.25,47.59359,-54.27349
2023-02-09 05:24:00+00:00,285.0,6.25,284.0,6.99,12.25,47.59359,-54.27349
2023-02-09 05:34:00+00:00,276.0,6.25,272.0,7.43,12.25,47.59359,-54.27349
2023-02-09 05:44:00+00:00,275.0,6.2,266.0,7.49,12.25,47.59359,-54.27349
2023-02-09 05:54:00+00:00,272.0,6.84,271.0,7.82,12.25,47.59359,-54.27349
2023-02-09 06:04:00+00:00,267.0,7.14,268.0,8.14,12.25,47.59359,-54.27349
2023-02-09 06:14:00+00:00,274.0,6.65,271.0,7.81,12.25,47.59359,-54.27349
2023-02-09 06:24:00+00:00,279.0,5.95,275.0,6.92,12.25,47.59359,-54.27349
2023-02-09 06:34:00+00:00,276.0,5.82,270.0,6.45,12.25,47.59359,-54.27349
2023-02-09 06:44:00+00:00,274.0,4.93,274.0,5.53,12.25,47.59359,-54.27349
2023-02-09 06:54:00+00:00,266.0,4.94,267.0,5.86,12.25,47.59359,-54.27349
2023-02-09 07:04:00+00:00,249.0,4.56,249.0,5.08,12.25,47.59359,-54.27349
2023-02-09 07:14:00+00:00,259.0,4.3,265.0,4.87,12.25,47.59359,-54.27349
2023-02-09 07:24:00+00:00,249.0,4.73,244.0,5.53,12.25,47.59359,-54.27349
2023-02-09 07:34:00+00:00,283.0,4.56,265.0,5.34,12.25,47.59359,-54.27349
2023-02-09 07:44:00+00:00,275.0,3.98,276.0,4.59,12.25,47.59359,-54.27349
2023-02-09 07:54:00+00:00,270.0,5.85,271.0,6.62,12.25,47.59359,-54.27349
2023-02-09 08:04:00+00:00,262.0,5.26,264.0,6.16,12.25,47.59359,-54.27349
2023-02-09 08:14:00+00:00,274.0,5.47,267.0,5.95,12.25,47.59359,-54.27349
2023-02-09 08:24:00+00:00,280.0,5.73,279.0,6.61,12.25,47.59359,-54.27349
2023-02-09 08:34:00+00:00,267.0,4.98,273.0,5.94,12.25,47.59359,-54.27349
2023-02-09 08:44:00+00:00,263.0,4.75,260.0,5.17,12.25,47.59359,-54.27349
2023-02-09 08:54:00+00:00,269.0,4.92,274.0,5.47,12.25,47.59359,-54.27349
2023-02-09 09:04:00+00:00,264.0,4.79,258.0,5.13,12.25,47.59359,-54.27349
2023-02-09 09:14:00+00:00,282.0,5.15,283.0,5.61,12.25,47.59359,-54.27349
2023-02-09 09:24:00+00:00,285.0,4.98,287.0,5.36,12.25,47.59359,-54.27349
2023-02-09 09:34:00+00:00,285.0,5.0,291.0,5.71,12.25,47.59359,-54.27349
2023-02-09 09:44:00+00:00,300.0,4.75,305.0,5.53,12.25,47.59359,-54.27349
2023-02-09 09:54:00+00:00,270.0,4.88,273.0,5.45,12.25,47.59359,-54.27349
2023-02-09 10:04:00+00:00,282.0,3.75,277.0,4.71,12.25,47.59359,-54.27349
2023-02-09 10:14:00+00:00,284.0,5.18,288.0,5.99,12.17,47.59359,-54.27349
2023-02-09 10:24:00+00:00,271.0,4.75,268.0,5.28,12.17,47.59359,-54.27349
2023-02-09 10:34:00+00:00,277.0,6.1,282.0,7.99,12.17,47.59359,-54.27349
2023-02-09 10:44:00+00:00,288.0,6.73,288.0,9.18,12.17,47.59359,-54.27349
2023-02-09 10:54:00+00:00,288.0,6.95,281.0,8.48,12.17,47.59359,-54.27349
2023-02-09 11:04:00+00:00,293.0,9.03,292.0,11.56,12.17,47.59359,-54.27349
2023-02-09 11:14:00+00:00,296.0,9.07,296.0,10.42,12.17,47.59359,-54.27349
2023-02-09 11:24:00+00:00,299.0,8.08,299.0,8.98,12.17,47.59359,-54.27349
2023-02-09 11:34:00+00:00,295.0,6.42,299.0,7.2,12.17,47.59359,-54.27349
2023-02-09 11:44:00+00:00,286.0,7.33,283.0,8.19,12.17,47.59359,-54.27349
2023-02-09 11:54:00+00:00,295.0,7.75,290.0,9.8,12.17,47.59359,-54.27349
2023-02-09 12:04:00+00:00,298.0,6.95,296.0,8.35,12.17,47.59359,-54.27349
2023-02-09 12:14:00+00:00,298.0,7.99,303.0,9.5,13.68,47.59359,-54.27349
2023-02-09 12:24:00+00:00,304.0,6.69,303.0,7.91,13.68,47.59359,-54.27349
2023-02-09 12:34:00+00:00,300.0,6.62,294.0,7.73,13.68,47.59359,-54.27349
2023-02-09 12:44:00+00:00,304.0,7.4,308.0,8.35,13.68,47.59359,-54.27349
2023-02-09 12:54:00+00:00,304.0,7.77,303.0,9.04,13.68,47.59359,-54.27349
2023-02-09 13:04:00+00:00,294.0,7.47,296.0,8.5,13.68,47.59359,-54.27349
2023-02-09 13:14:00+00:00,292.0,7.89,297.0,9.32,14.0,47.59359,-54.27349
2023-02-09 13:24:00+00:00,296.0,7.7,300.0,8.46,14.0,47.59359,-54.27349
2023-02-09 13:34:00+00:00,308.0,7.41,314.0,8.25,14.0,47.59359,-54.27349
2023-02-09 13:44:00+00:00,308.0,6.38,302.0,7.67,14.0,47.59359,-54.27349
2023-02-09 13:54:00+00:00,307.0,7.93,303.0,9.23,14.0,47.59359,-54.27349
2023-02-09 14:04:00+00:00,294.0,7.08,304.0,8.25,14.0,47.59359,-54.27349
2023-02-09 14:14:00+00:00,309.0,5.93,303.0,6.7,14.4,47.59359,-54.27349
2023-02-09 14:24:00+00:00,304.0,5.85,309.0,7.74,14.4,47.59359,-54.27349
2023-02-09 14:34:00+00:00,307.0,7.24,307.0,9.03,14.4,47.59359,-54.27349
2023-02-09 14:44:00+00:00,300.0,7.25,298.0,8.71,14.4,47.59359,-54.27349
2023-02-09 14:54:00+00:00,304.0,8.66,305.0,9.65,14.4,47.59359,-54.27349
2023-02-09 15:04:00+00:00,309.0,6.29,316.0,8.15,14.4,47.59359,-54.27349
2023-02-09 15:14:00+00:00,324.0,6.23,322.0,7.32,13.6,47.59359,-54.27349
2023-02-09 15:24:00+00:00,305.0,7.4,304.0,8.78,13.6,47.59359,-54.27349
2023-02-09 15:34:00+00:00,305.0,6.72,306.0,8.51,13.6,47.59359,-54.27349
2023-02-09 15:44:00+00:00,302.0,6.97,309.0,7.94,13.6,47.59359,-54.27349
2023-02-09 15:54:00+00:00,316.0,7.21,318.0,8.21,13.6,47.59359,-54.27349
2023-02-09 16:04:00+00:00,305.0,7.65,304.0,9.59,13.6,47.59359,-54.27349
2023-02-09 16:14:00+00:00,320.0,7.52,315.0,8.63,13.84,47.59359,-54.27349
2023-02-09 16:24:00+00:00,308.0,6.34,300.0,7.11,13.84,47.59359,-54.27349
2023-02-09 16:34:00+00:00,305.0,5.58,304.0,6.68,13.84,47.59359,-54.27349
2023-02-09 16:44:00+00:00,321.0,7.41,325.0,8.99,13.84,47.59359,-54.27349
2023-02-09 16:54:00+00:00,303.0,7.3,304.0,8.38,13.84,47.59359,-54.27349
2023-02-09 17:04:00+00:00,311.0,7.49,323.0,9.24,13.84,47.59359,-54.27349
2023-02-09 17:14:01+00:00,305.0,8.85,304.0,10.7,13.53,47.59359,-54.27349
2023-02-09 17:24:01+00:00,301.0,11.09,293.0,14.47,13.53,47.59359,-54.27349
2023-02-09 17:34:01+00:00,311.0,8.52,308.0,9.9,13.53,47.59359,-54.27349
2023-02-09 17:44:01+00:00,316.0,9.11,311.0,10.62,13.53,47.59359,-54.27349
2023-02-09 17:54:01+00:00,337.0,10.05,329.0,11.15,13.53,47.59359,-54.27349
2023-02-09 18:04:01+00:00,329.0,9.86,328.0,11.53,13.53,47.59359,-54.27349
2023-02-09 18:14:00+00:00,337.0,9.73,338.0,10.91,13.6,47.59359,-54.27349
2023-02-09 18:24:00+00:00,339.0,9.71,337.0,11.06,13.6,47.59359,-54.27349
2023-02-09 18:34:00+00:00,335.0,8.68,344.0,9.67,13.6,47.59359,-54.27349
2023-02-09 18:44:00+00:00,333.0,8.46,331.0,9.97,13.6,47.59359,-54.27349
2023-02-09 18:54:00+00:00,319.0,11.14,323.0,12.53,13.6,47.59359,-54.27349
2023-02-09 19:04:00+00:00,336.0,10.61,341.0,12.0,13.6,47.59359,-54.27349
2023-02-09 19:14:00+00:00,336.0,10.33,340.0,14.6,13.29,47.59359,-54.27349
2023-02-09 19:24:00+00:00,345.0,10.24,334.0,11.87,13.29,47.59359,-54.27349
2023-02-09 19:34:00+00:00,332.0,8.6,327.0,9.56,13.29,47.59359,-54.27349
2023-02-09 19:44:00+00:00,343.0,8.96,330.0,12.34,13.29,47.59359,-54.27349
2023-02-09 19:54:00+00:00,325.0,8.97,340.0,10.49,13.29,47.59359,-54.27349
2023-02-09 20:04:00+00:00,334.0,8.11,322.0,9.08,13.29,47.59359,-54.27349
2023-02-09 20:14:01+00:00,343.0,12.1,345.0,14.13,13.05,47.59359,-54.27349
2023-02-09 20:24:01+00:00,328.0,12.44,332.0,15.52,13.05,47.59359,-54.27349
2023-02-09 20:34:01+00:00,330.0,11.5,327.0,13.71,13.05,47.59359,-54.27349
2023-02-09 20:44:01+00:00,328.0,10.9,327.0,12.64,13.05,47.59359,-54.27349
2023-02-09 20:54:01+00:00,339.0,9.22,328.0,10.86,13.05,47.59359,-54.27349
2023-02-09 21:04:01+00:00,331.0,10.44,341.0,12.15,13.05,47.59359,-54.27349
2023-02-09 21:14:00+00:00,340.0,8.78,321.0,11.21,12.49,47.59359,-54.27349
2023-02-09 21:24:00+00:00,335.0,8.48,339.0,9.86,12.49,47.59359,-54.27349
2023-02-09 21:34:00+00:00,332.0,8.19,339.0,10.22,12.49,47.59359,-54.27349
2023-02-09 21:44:00+00:00,328.0,6.9,308.0,9.24,12.49,47.59359,-54.27349
2023-02-09 21:54:00+00:00,313.0,10.46,313.0,13.06,12.49,47.59359,-54.27349
2023-02-09 22:04:00+00:00,317.0,11.8,315.0,13.76,12.49,47.59359,-54.27349
2023-02-09 22:14:00+00:00,318.0,10.65,312.0,13.4,12.41,47.59359,-54.27349
2023-02-09 22:24:00+00:00,0.0,8.04,4.0,9.46,12.41,47.59359,-54.27349
2023-02-09 22:34:00+00:00,311.0,11.74,312.0,13.2,12.41,47.59359,-54.27349
2023-02-09 22:44:00+00:00,315.0,11.13,310.0,13.06,12.41,47.59359,-54.27349
2023-02-09 22:54:00+00:00,323.0,9.86,312.0,13.21,12.41,47.59359,-54.27349
2023-02-09 23:04:00+00:00,323.0,11.82,321.0,14.3,12.41,47.59359,-54.27349
2023-02-09 23:14:00+00:00,321.0,11.22,315.0,13.06,12.33,47.59359,-54.27349
2023-02-09 23:24:00+00:00,350.0,8.82,350.0,10.68,12.33,47.59359,-54.27349
2023-02-09 23:34:00+00:00,340.0,11.61,347.0,13.74,12.33,47.59359,-54.27349
2023-02-09 23:44:00+00:00,331.0,10.68,317.0,12.98,12.33,47.59359,-54.27349
2023-02-09 23:54:00+00:00,318.0,10.07,313.0,13.1,12.33,47.59359,-54.27349
